[[{"header":{"parameterUnit":"m.s-1","parameterCategory":1,"la1":30.2991,"la2":30.254,"lo1":-89.0895,"lo2":-89.0444,"dy":0.0017,"dx":0.0017,"nx":28,"ny":28,"refTime":"2023-11-12T09:00:00:Z","depth":0,"parameterNumber":2,"parameterNumberName":"U-component_of_WINDS"},"data":[0,0,0,0,0,0,0,0,0,0,0,0,0,0,0,0,0,0,0,0,0,0,0,0,0,0,0,0,0,0,0,0,0,0,0,0,0,0,0,0,0,0,0,0,0,0,0,0,0,0,0,0,0,0,0,0,0,0,-5.0724,-5.0725,0,-5.0807,-5.0808,-5.0809,-5.0708,-5.0704,-5.07,-5.0697,-5.0783,-5.0788,-5.0794,0,0,0,0,0,0,0,0,0,0,0,0,0,-5.0477,-5.0482,-5.0724,-5.0725,-5.0726,-5.0807,-5.0808,-5.0809,-5.0708,-5.0704,-5.0699,-5.0695,-5.0781,-5.0787,-5.0794,0,0,0,0,0,0,0,0,0,0,0,0,0,-5.0575,-5.0484,-5.0724,-5.0685,-5.0683,-5.0807,-5.0808,-5.081,-5.0709,-5.0704,-5.0698,-5.0693,-5.0778,-5.0787,-5.0795,-5.0962,0,0,-5.0822,-5.0826,0,0,0,0,0,0,0,0,-5.0569,-5.0584,-5.069,-5.0688,-5.0685,-5.0741,-5.0753,-5.0861,-5.0711,-5.0699,-5.0696,-5.069,-5.0773,-5.0782,-5.081,-5.0966,-5.0969,-5.0823,-5.0828,-5.0832,-5.0834,0,0,0,0,0,0,0,-5.0563,-5.058,-5.0757,-5.0691,-5.0689,-5.0664,-5.0671,-5.0773,-5.0767,-5.07,-5.0693,-5.0704,-5.0771,-5.0802,-5.0811,-5.0971,-5.0822,-5.083,-5.0835,-5.0839,-5.1267,-5.1273,0,0,0,0,0,0,-5.056,-5.0575,-5.0754,-5.0759,-5.0612,-5.0673,-5.0681,-5.0729,-5.0765,-5.0766,-5.0708,-5.0699,-5.079,-5.0801,-5.0814,-5.1012,-5.0832,-5.084,-5.0845,-5.1261,-5.1269,-5.1275,0,0,0,0,0,0,-5.0555,-5.0577,-5.0751,-5.0665,-5.0685,-5.0683,-5.0737,-5.0734,-5.0764,-5.0772,-5.0771,-5.0741,-5.0786,-5.0802,-5.0926,-5.1013,-5.0844,-5.0852,-5.1254,-5.1264,-5.1272,-5.1409,0,0,0,0,0,0,-5.0549,-5.0576,-5.0639,-5.0667,-5.069,-5.0862,-5.0743,-5.0739,-5.078,-5.0768,-5.0802,-5.0803,-5.0783,-5.0913,-5.0934,-5.1022,-5.0858,-5.1246,-5.1258,-5.1269,-5.1397,-5.1422,-5.1443,0,0,0,0,0,-5.054,-5.0674,-5.0643,-5.0665,-5.0769,-5.0867,-5.088,-5.0854,-5.0787,-5.0851,-5.0856,-5.0802,-5.1,-5.0927,-5.095,-5.1042,-5.124,-5.1255,-5.1268,-5.1386,-5.1417,-5.1443,0,0,0,0,0,0,-5.0657,-5.0677,-5.0643,-5.079,-5.0828,-5.0849,-5.0929,-5.0887,-5.0945,-5.0931,-5.0896,-5.0905,-5.1038,-5.1051,-5.097,-5.1205,-5.1109,-5.1128,-5.1191,-5.122,-5.1243,-5.1238,-5.0866,0,0,0,0,0,-5.07,-5.0777,-5.0791,-5.0919,-5.094,-5.0932,-5.0973,-5.095,-5.0987,-5.1003,-5.1016,-5.1055,-5.1126,-5.1173,-5.1239,-5.1397,-5.1404,-5.1472,-5.1495,-5.1514,-5.1532,-5.1617,-5.1648,-5.1321,-5.1321,-5.1321,0,0,-5.0789,-5.081,-5.0861,-5.0943,-5.097,-5.1051,-5.0946,-5.1036,-5.1096,-5.1016,-5.1135,-5.1146,-5.1187,-5.1329,-5.1392,-5.1345,-5.1623,-5.1532,-5.1547,-5.1554,-5.1635,-5.1666,-5.1693,-5.133,-5.1329,-5.1327,0,0,-5.0994,-5.1017,-5.1127,-5.1156,-5.1197,-5.119,-5.1217,-5.1245,-5.125,-5.1368,-5.131,-5.1381,-5.1503,-5.1535,-5.1567,-5.1784,-5.1737,-5.1806,-5.1929,-5.2013,-5.2038,-5.2061,-5.214,-5.2168,-5.1823,-5.1824,-5.1824,0,-5.11,-5.122,-5.1189,-5.1284,-5.1322,-5.1253,-5.1365,-5.1394,-5.1455,-5.1483,-5.1428,-5.1581,-5.1604,-5.1753,-5.1806,-5.1834,-5.1864,-5.1803,-5.2037,-5.206,-5.208,-5.2155,-5.2184,-5.1832,-5.1831,-5.183,-5.1829,0,-5.1349,-5.1434,-5.1517,-5.1578,-5.1625,-5.1728,-5.1713,-5.1764,-5.1737,-5.1736,-5.1858,-5.1882,-5.1952,-5.1985,-5.1959,-5.2131,-5.21,-5.2042,-5.1946,-5.212,-5.219,-5.2218,-5.1844,-5.1841,-5.1838,-5.1836,0,0,-5.1631,-5.1673,-5.1704,-5.1731,-5.1771,-5.1836,-5.1935,-5.2003,-5.2049,-5.2093,-5.2176,-5.2282,-5.2228,-5.2265,-5.2242,-5.2315,-5.2487,-5.2248,-5.2248,-5.2293,-5.2679,-5.2724,-5.2757,-5.2455,-5.246,-5.2464,-5.2676,0,-5.1837,-5.201,-5.1985,-5.2151,-5.2229,-5.2165,-5.2251,-5.2286,-5.2288,-5.2354,-5.2355,-5.2431,-5.2354,-5.2376,-5.2446,-5.2451,-5.2564,-5.2435,-5.2533,-5.2537,-5.2527,-5.2793,-5.2841,-5.3039,-5.2703,-5.2707,-5.2711,0,-5.2101,-5.2155,-5.233,-5.2358,-5.239,-5.2468,-5.2529,-5.2593,-5.263,-5.2626,-5.2668,-5.2631,-5.2731,-5.2632,-5.2769,-5.2683,-5.2721,-5.2729,-5.2736,-5.2746,-5.2636,-5.2811,-5.3101,-5.3132,-5.2753,-5.2749,-5.2746,0,-5.2291,-5.2407,-5.2527,-5.2551,-5.2587,-5.2644,-5.2662,-5.2693,-5.2736,-5.2789,-5.2816,-5.288,-5.2916,-5.2966,-5.2948,-5.2877,-5.309,-5.2989,-5.309,-5.3091,-5.3139,-5.3137,-5.3441,-5.3162,-5.3161,-5.3161,-5.316,0,-5.2525,-5.2635,-5.2612,-5.2686,-5.2807,-5.2777,-5.2898,-5.2907,-5.2936,-5.3011,-5.2958,-5.3029,-5.3,-5.307,-5.3056,-5.3173,-5.3189,-5.3189,-5.3184,-5.3195,-5.3195,-5.322,-5.3207,-5.3168,-5.3167,-5.3165,-5.3164,0,-5.2758,-5.2748,-5.2874,-5.2897,-5.2906,-5.2994,-5.3014,-5.3083,-5.3081,-5.3176,-5.3196,-5.3193,-5.3272,-5.3258,-5.3346,-5.3336,-5.3483,-5.346,-5.3471,-5.3466,-5.3569,-5.356,-5.3902,-5.3945,-5.3636,-5.3639,-5.3642,0,-5.2909,-5.2992,-5.3024,-5.3071,-5.3092,-5.3168,-5.3211,-5.3184,-5.3231,-5.328,-5.3344,-5.3418,-5.3476,-5.3606,-5.3611,-5.3678,-5.3657,-5.3772,-5.3667,-5.3675,-5.3661,-5.3657,-5.3665,-5.3794,-5.3797,-5.38,-5.3803,0,-5.3178,-5.3169,-5.3233,-5.3297,-5.335,-5.3398,-5.3442,-5.3482,-5.3459,-5.3515,-5.3595,-5.364,-5.373,-5.3804,-5.3867,-5.3884,-5.3841,-5.3835,-5.3863,-5.3875,-5.3878,-5.3879,-5.3529,-5.3828,-5.3826,-5.3824,-5.3822,-5.3821,-5.3376,-5.3447,-5.3481,-5.3555,-5.3584,-5.3626,-5.3693,-5.3698,-5.3764,-5.3835,-5.3815,-5.3906,-5.3941,-5.4021,-5.4046,-5.4117,-5.4074,-5.4113,-5.4124,-5.4134,-5.4147,-5.3866,-5.4128,-5.4127,-5.4126,-5.4126,-5.4125,0,-5.3643,-5.3662,-5.373,-5.3792,-5.3851,-5.3803,-5.3849,-5.3901,-5.3982,-5.4018,-5.4076,-5.4169,-5.4241,-5.4252,-5.432,-5.4376,-5.4357,-5.4395,-5.4391,-5.4396,-5.4181,-5.4151,-5.4408,-5.4408,-5.4408,-5.4408,-5.4408,-5.4408,-5.379,-5.3908,-5.3903,-5.4035,-5.4052,-5.4141,-5.4171,-5.421,-5.4239,-5.4344,-5.4404,-5.441,-5.4437,-5.4507,-5.4571,-5.4572,-5.4601,-5.4647,-5.4641,-5.4439,-5.4411,-5.4384,-5.4356,-5.4653,-5.4653,-5.485,-5.4852,-5.4853]},{"header":{"parameterUnit":"m.s-1","parameterCategory":1,"la1":30.2991,"la2":30.254,"lo1":-89.0895,"lo2":-89.0444,"dy":0.0017,"dx":0.0017,"nx":28,"ny":28,"refTime":"2023-11-12T09:00:00:Z","depth":0,"parameterNumber":3,"parameterNumberName":"V-component_of_WINDS"},"data":[0,0,0,0,0,0,0,0,0,0,0,0,0,0,0,0,0,0,0,0,0,0,0,0,0,0,0,0,0,0,0,0,0,0,0,0,0,0,0,0,0,0,0,0,0,0,0,0,0,0,0,0,0,0,0,0,0,0,-4.5058,-4.5058,0,-4.5059,-4.5059,-4.5059,-4.5001,-4.4999,-4.4998,-4.4996,-4.4997,-4.4999,-4.5,0,0,0,0,0,0,0,0,0,0,0,0,0,-4.5006,-4.5007,-4.5058,-4.5058,-4.5058,-4.5059,-4.5059,-4.5059,-4.5001,-4.4999,-4.4997,-4.4996,-4.4997,-4.4998,-4.5,0,0,0,0,0,0,0,0,0,0,0,0,0,-4.502,-4.5007,-4.5058,-4.503,-4.5027,-4.5059,-4.5059,-4.5059,-4.5002,-4.4999,-4.4997,-4.4995,-4.4996,-4.4998,-4.5,-4.506,0,0,-4.5007,-4.5008,0,0,0,0,0,0,0,0,-4.5019,-4.5022,-4.5034,-4.5032,-4.5029,-4.5028,-4.5041,-4.506,-4.5002,-4.5011,-4.4996,-4.4994,-4.5009,-4.501,-4.5015,-4.506,-4.506,-4.5007,-4.5009,-4.501,-4.501,0,0,0,0,0,0,0,-4.5018,-4.5021,-4.5059,-4.5034,-4.5031,-4.5016,-4.5016,-4.5044,-4.5023,-4.501,-4.5006,-4.5007,-4.5007,-4.5013,-4.5015,-4.506,-4.5007,-4.5009,-4.5011,-4.5011,-4.5152,-4.5155,0,0,0,0,0,0,-4.5021,-4.5021,-4.5059,-4.5059,-4.5018,-4.5019,-4.5018,-4.503,-4.5023,-4.5019,-4.5009,-4.5004,-4.5011,-4.5012,-4.5015,-4.5083,-4.501,-4.5012,-4.5013,-4.515,-4.5153,-4.5155,0,0,0,0,0,0,-4.502,-4.5025,-4.5059,-4.5039,-4.5042,-4.5022,-4.5036,-4.5032,-4.5037,-4.5022,-4.5018,-4.5019,-4.5009,-4.5012,-4.5049,-4.5082,-4.5013,-4.5015,-4.5147,-4.5151,-4.5154,-4.5221,0,0,0,0,0,0,-4.5019,-4.5025,-4.5048,-4.504,-4.5043,-4.5093,-4.5038,-4.5033,-4.5041,-4.5035,-4.503,-4.5027,-4.5007,-4.5046,-4.5051,-4.5084,-4.5016,-4.5144,-4.5149,-4.5153,-4.5215,-4.5226,-4.5235,0,0,0,0,0,-4.5017,-4.5067,-4.5049,-4.5054,-4.5071,-4.5095,-4.5097,-4.5074,-4.5044,-4.5067,-4.5056,-4.5027,-4.5078,-4.505,-4.5056,-4.509,-4.5142,-4.5147,-4.5153,-4.5211,-4.5224,-4.5235,0,0,0,0,0,0,-4.508,-4.5066,-4.5046,-4.5095,-4.5097,-4.5085,-4.5113,-4.5089,-4.5099,-4.5093,-4.5063,-4.5063,-4.5104,-4.5101,-4.507,-4.5146,-4.5104,-4.5111,-4.5147,-4.5159,-4.5169,-4.5169,-4.5018,0,0,0,0,0,-4.51,-4.5121,-4.5107,-4.5151,-4.5153,-4.5133,-4.5143,-4.5124,-4.5125,-4.5126,-4.5118,-4.512,-4.5136,-4.5148,-4.5162,-4.5215,-4.5212,-4.524,-4.525,-4.5259,-4.5265,-4.5291,-4.5303,-4.5173,-4.5173,-4.5173,0,0,-4.5141,-4.5135,-4.515,-4.5163,-4.5163,-4.5185,-4.5134,-4.516,-4.5175,-4.513,-4.5164,-4.5159,-4.5159,-4.5204,-4.5223,-4.5202,-4.53,-4.5266,-4.5272,-4.5274,-4.5298,-4.531,-4.5321,-4.5177,-4.5176,-4.5176,0,0,-4.5226,-4.5224,-4.526,-4.526,-4.526,-4.5246,-4.5254,-4.5247,-4.5241,-4.5275,-4.5241,-4.5259,-4.5288,-4.5289,-4.5293,-4.5377,-4.535,-4.5382,-4.5434,-4.546,-4.547,-4.5479,-4.5508,-4.5519,-4.5389,-4.5389,-4.5389,0,-4.5276,-4.5308,-4.5282,-4.5309,-4.5315,-4.5274,-4.531,-4.5311,-4.5316,-4.5321,-4.5297,-4.5331,-4.5329,-4.5372,-4.5393,-4.5398,-4.5406,-4.5383,-4.5471,-4.548,-4.5488,-4.5515,-4.5526,-4.5393,-4.5392,-4.5392,-4.5391,0,-4.5369,-4.5392,-4.5421,-4.5425,-4.5435,-4.5466,-4.5444,-4.5457,-4.5437,-4.5426,-4.546,-4.5455,-4.5467,-4.5476,-4.5458,-4.5517,-4.5504,-4.5476,-4.5434,-4.5504,-4.5529,-4.5539,-4.5398,-4.5397,-4.5396,-4.5395,0,0,-4.5495,-4.5483,-4.5494,-4.5495,-4.5491,-4.5507,-4.5536,-4.5547,-4.5558,-4.5563,-4.5585,-4.561,-4.5584,-4.5589,-4.557,-4.5593,-4.5658,-4.5562,-4.5562,-4.5579,-4.5722,-4.5742,-4.5755,-4.564,-4.5642,-4.5644,-4.5722,0,-4.5576,-4.5625,-4.5602,-4.5653,-4.5672,-4.5633,-4.5658,-4.5658,-4.5648,-4.5663,-4.5651,-4.5669,-4.5634,-4.5636,-4.5657,-4.5646,-4.5686,-4.564,-4.5661,-4.5662,-4.5661,-4.5768,-4.579,-4.5863,-4.5731,-4.5733,-4.5734,0,-4.5678,-4.5685,-4.5739,-4.5729,-4.5736,-4.5759,-4.5767,-4.5781,-4.578,-4.5771,-4.5776,-4.5751,-4.5779,-4.5737,-4.5773,-4.5743,-4.575,-4.5746,-4.5748,-4.5748,-4.5702,-4.577,-4.5886,-4.5897,-4.5749,-4.5748,-4.5747,0,-4.5763,-4.5786,-4.582,-4.5822,-4.5813,-4.5829,-4.5826,-4.5822,-4.583,-4.5836,-4.5841,-4.5851,-4.5856,-4.5864,-4.5843,-4.5815,-4.5882,-4.5839,-4.5875,-4.5875,-4.589,-4.5889,-4.6008,-4.5896,-4.5896,-4.5896,-4.5896,0,-4.5856,-4.589,-4.5858,-4.5879,-4.5915,-4.5887,-4.5924,-4.5916,-4.5913,-4.5932,-4.5899,-4.5917,-4.5888,-4.5903,-4.5887,-4.5919,-4.5922,-4.5915,-4.591,-4.5917,-4.5918,-4.5921,-4.5915,-4.5899,-4.5898,-4.5898,-4.5897,0,-4.5957,-4.5937,-4.5971,-4.5959,-4.5956,-4.5983,-4.5972,-4.5991,-4.5978,-4.6002,-4.6006,-4.5986,-4.6002,-4.5981,-4.5996,-4.5984,-4.6028,-4.6016,-4.6028,-4.6024,-4.6061,-4.6057,-4.6185,-4.62,-4.608,-4.6081,-4.6082,0,-4.6017,-4.6042,-4.6031,-4.6041,-4.6039,-4.6055,-4.6062,-4.6036,-4.6045,-4.6044,-4.6063,-4.6076,-4.6085,-4.6112,-4.6099,-4.6109,-4.6096,-4.614,-4.6098,-4.6104,-4.6096,-4.6094,-4.6096,-4.6149,-4.615,-4.6151,-4.6152,0,-4.6125,-4.6114,-4.6125,-4.6133,-4.6142,-4.6147,-4.615,-4.616,-4.6132,-4.6143,-4.6159,-4.6166,-4.6179,-4.6192,-4.6199,-4.6195,-4.6169,-4.6166,-4.6174,-4.6182,-4.6188,-4.6184,-4.6051,-4.6163,-4.6162,-4.6161,-4.6161,-4.616,-4.6207,-4.6226,-4.6221,-4.6235,-4.6234,-4.6236,-4.6253,-4.6241,-4.6254,-4.6262,-4.6246,-4.6265,-4.6262,-4.6268,-4.6267,-4.6282,-4.6263,-4.6276,-4.6279,-4.6282,-4.6287,-4.6186,-4.6283,-4.6283,-4.6283,-4.6282,-4.6282,0,-4.6313,-4.6307,-4.632,-4.6323,-4.6334,-4.6308,-4.6309,-4.6319,-4.6336,-4.6335,-4.6344,-4.6361,-4.6374,-4.6361,-4.6371,-4.6385,-4.6373,-4.6388,-4.6386,-4.6386,-4.6304,-4.6295,-4.6397,-4.6397,-4.6397,-4.6397,-4.6397,-4.6397,-4.6369,-4.64,-4.6388,-4.6417,-4.6412,-4.643,-4.6432,-4.6434,-4.6433,-4.6453,-4.6463,-4.6454,-4.6448,-4.6457,-4.6467,-4.6463,-4.6468,-4.6487,-4.6479,-4.6403,-4.6392,-4.6381,-4.6372,-4.6489,-4.6489,-4.6559,-4.6559,-4.656]}]]